Location: Bakhuizen
(52.8696°N, 5.4575°E)
Time: 03:35:25
(UTC+00:00)

Cosmos 1340 Rocket - Pass Details

Date: 11 May 2021
Orbit: 528 x 559 km, 81.2° (Epoch: 14 June)

Event Time Altitude Azimuth Distance (km) Brightness Sun altitude
Rises 22:23:54 0° 341° (NNW) 2,761 8.2 -17.4°
Reaches altitude 10° 22:26:11 10° 333° (NNW) 1,860 6.8 -17.5°
Maximum altitude 22:29:59 38° 266° (W) 869 3.9 -17.6°
Enters shadow 22:31:45 25° 216° (SW) 1,152 4.1 -17.7°
